Location: Newark
(45.5167°N, 11.1667°E)
Time: 01:52:53
(UTC+00:00)

Explorer 7 - Pass Details

Date: 23 December 2019
Orbit: 485 x 679 km, 50.3° (Epoch: 27 January)

Event Time Altitude Azimuth Distance (km) Brightness Sun altitude
Rises 17:35:14 0° 286° (WNW) 3,028 11.6 -20.0°
Reaches altitude 10° 17:38:31 10° 264° (W) 2,116 11.0 -20.6°
Maximum altitude 17:41:15 15° 230° (SW) 1,795 10.2 -21.0°
Drops below altitude 10° 17:43:58 10° 195° (SSW) 2,098 10.1 -21.5°
Sets 17:47:13 0° 173° (S) 2,988 10.6 -22.1°
